Left ArrowRight Arrow

40.92501, -98.34201

Hourly Observations for June 13, 2024

Temp ( °F °C ) Dew Point ( °F °C ) Humidity (%) Winds ( mph kmh ) Pressure ( in mb ) Visibility ( mi km ) Precip ( " mm )
12:53 am 00:53 Clear 72 22.2 66 18.9 82 82 S 7 11 29.75 1008 10 16 0.00 0.00
1:53 am 01:53 Clear 70 21.1 64 17.8 81 81 NNE 6 9 29.75 1007 10 16 0.00 0.00
2:53 am 02:53 Clear 69 20.6 64 17.8 84 84 S 3 6 29.73 1007 10 16 0.00 0.00
3:53 am 03:53 Clear 67 19.4 63 17.2 87 87 SE 3 6 29.72 1007 10 16 0.00 0.00
4:53 am 04:53 Clear 65 18.3 62 16.7 90 90 ESE 6 9 29.71 1006 10 16 0.00 0.00
5:53 am 05:53 Clear 66 18.9 63 17.2 90 90 Calm 29.71 1006 10 16 0.00 0.00
6:53 am 06:53 Sunny 70 21.1 64 17.8 81 81 S 7 11 29.70 1006 10 16 0.00 0.00
7:53 am 07:53 Sunny 76 24.4 65 18.3 69 69 SSW 8 13 29.70 1006 10 16 0.00 0.00
8:53 am 08:53 Sunny 80 26.7 66 18.9 62 62 WSW 13 20 29.73 1007 10 16 0.00 0.00
9:53 am 09:53 Sunny 85 29.4 67 19.4 55 55 W 9 15 29.75 1008 10 16 0.00 0.00
10:53 am 10:53 Sunny 87 30.6 68 20 53 53 N 14 22 29.78 1009 10 16 0.00 0.00
11:53 am 11:53 Sunny 88 31.1 67 19.4 50 50 NE 23 37 29.82 1010 10 16 0.00 0.00
12:53 pm 12:53 Mostly Sunny 89 31.7 69 20.6 52 52 ENE 21 33 29.85 1011 10 16 0.00 0.00
1:53 pm 13:53 Sunny 88 31.1 59 15 38 38 NE 28 44 29.88 1012 10 16 0.00 0.00
2:53 pm 14:53 Sunny 88 31.1 58 14.4 36 36 NE 30 48 29.90 1012 10 16 0.00 0.00
3:53 pm 15:53 Sunny 88 31.1 58 14.4 36 36 ENE 22 35 29.91 1013 10 16 0.00 0.00
4:53 pm 16:53 Sunny 87 30.6 58 14.4 37 37 ENE 21 33 29.91 1013 10 16 0.00 0.00
5:53 pm 17:53 Sunny 85 29.4 58 14.4 40 40 ENE 20 31 29.89 1012 10 16 0.00 0.00
6:53 pm 18:53 Sunny 85 29.4 57 13.9 39 39 NE 17 28 29.90 1012 10 16 0.00 0.00
7:53 pm 19:53 Sunny 83 28.3 57 13.9 41 41 ENE 15 24 29.91 1013 10 16 0.00 0.00
8:53 pm 20:53 Sunny 78 25.6 58 14.4 50 50 ENE 8 13 29.93 1013 10 16 0.00 0.00
9:53 pm 21:53 Clear 75 23.9 58 14.4 55 55 ENE 6 9 29.96 1015 10 16 0.00 0.00
10:53 pm 22:53 Clear 68 20 58 14.4 70 70 N 10 17 30.01 1016 10 16 0.00 0.00
11:53 pm 23:53 Clear 69 20.6 54 12.2 59 59 NNE 9 15 30.03 1017 10 16 0.00 0.00

Powered by Vaisala Xweather